AirNav   Everest Fuels
 
 909 users online  

L22 Yucca Valley Airport
Yucca Valley, California, USA

GOING TO YUCCA VALLEY?


FAA INFORMATION EFFECTIVE 03 JANUARY 2019

Location

FAA Identifier: L22
Lat/Long: 34-07-47.4000N / 116-24-24.8000W
34-07.790000N / 116-24.413333W
34.1298333 / -116.4068889
(estimated)
Elevation: 3224 ft. / 982.7 m (surveyed)
Variation: 14E (1985)
From city: 1 mile E of YUCCA VALLEY, CA
Time zone: UTC -8 (UTC -7 during Daylight Saving Time)
Zip code: 92284

Airport Operations

Airport use: Open to the public
Activation date: 01/1958
Control tower: no
ARTCC: LOS ANGELES CENTER
FSS: RIVERSIDE FLIGHT SERVICE STATION
NOTAMs facility: RAL (NOTAM-D service available)
Attendance: IREG
Wind indicator: lighted
Segmented circle: yes
Lights: ACTVT MIRL RY 06/24 - CTAF.

Airport Communications

CTAF/UNICOM: 123.0
WX ASOS at NXP (16 nm NE): 309.75 (760-830-8146)
WX ASOS at PSP (19 nm S): PHONE 760-322-7597

Nearby radio navigation aids

VOR radial/distance  VOR name  Freq  Var
PSPr351/15.6PALM SPRINGS VORTAC115.5013E
TNPr257/31.7TWENTYNINE PALMS VORTAC114.2015E
TRMr325/32.5THERMAL VORTAC116.2013E

Airport Services

Parking: tiedowns
Airframe service: MINOR
Powerplant service: MINOR
Bottled oxygen: NONE
Bulk oxygen: NONE

Runway Information

Runway 6/24

Dimensions: 4363 x 60 ft. / 1330 x 18 m
Surface: asphalt, in good condition
Weight bearing capacity: 
Single wheel: 12.5
Runway edge lights: medium intensity
Gradient: SW
RUNWAY 6  RUNWAY 24
Latitude: 34-07.663667N34-07.915333N
Longitude: 116-24.819000W116-24.008500W
Elevation: 3224.0 ft.3198.8 ft.
Gradient: 0.6% UP
Traffic pattern: rightleft
Runway heading: 056 magnetic, 070 true236 magnetic, 250 true
Displaced threshold: 349 ft.319 ft.
Markings: basic, in fair conditionbasic, in fair condition
Runway end identifier lights: nono
Touchdown point: yes, no lightsyes, no lights
Obstructions: 50 ft. tree, 1500 ft. from runway, 200 ft. right of centerline, 26:1 slope to clear
+6 FT FENCE 0-75 FT FM EOR 60 FT L AND +2 FT FENCE 75 FT FM EOR 60-125 FT R; +5 FT SIGN 82 FT FM RY END 100 FT R; +11 FT ROAD 190 FT FM RY END 125 FT R TO 90 FT FM RY END 125 FT L.
25 ft. trees, 940 ft. from runway, 100 ft. left of centerline, 29:1 slope to clear
+6 FT OBSTRUCTION LIGHTED FENCE 10 FT FM EOR 45 FT L TO 125 FT R.

Airport Ownership and Management from official FAA records

Ownership: Publicly-owned
Owner: YUCCA VALLEY AIRPORT DISTRICT
6804 WARREN VISTA AVE
YUCCA VALLEY, CA 92284
Phone 760-953-3670
Manager: BOB DUNN AND TIM LEWIS
PO BOX 2527
YUCCA VALLEY, CA 92286
Phone 760-401-0816

Airport Operational Statistics

Aircraft based on the field: 56
Single engine airplanes: 50
Multi engine airplanes: 2
Helicopters: 1
Gliders airplanes: 1
Ultralights: 2
    
Aircraft operations: avg 40/day *
66% transient general aviation
34% local general aviation
* for 12-month period ending 30 September 2017

Additional Remarks

PAEW ADJACENT RY 06/24.
6 FT TALL LGTD FENCE ADJ TO EACH RY END.
RY 06 CALM WIND RY.
NOISE ABATEMENT PROCEDURES IN EFFECT CTC ARPT MANAGER AT 760-401-0816.

Instrument Procedures

There are no published instrument procedures at L22.

Some nearby airports with instrument procedures:

KPSP - Palm Springs International Airport (19 nm S)
KTNP - Twentynine Palms Airport (23 nm E)
L35 - Big Bear City Airport (24 nm W)
KUDD - Bermuda Dunes Airport (24 nm S)
KTRM - Jacqueline Cochran Regional Airport (33 nm S)
 
Loc | Ops | Rwys | IFR | FBO | Links
Com | Nav | Svcs | Stats | Notes

San Bernardino International Airport Authority
 
Area around L22 (Yucca Valley Airport)
 
Road maps at: MapQuest Bing Google
 
Aerial photo
WARNING: Photo may not be current or correct
Aerial photo of L22 (Yucca Valley Airport)
Photo by Dennis Diaz
Photo taken 28-Jun-2010

Do you have a better or more recent aerial photo of Yucca Valley Airport that you would like to share? If so, please send us your photo.

 
Sectional chart

 
Airport distance calculator
Flying to Yucca Valley Airport? Find the distance to fly.

From to L22

Sunrise and sunset
Times for 18-Jan-2019
 Local
(UTC-8)
 Zulu
(UTC)
Morning civil twilight06:2414:24
Sunrise06:5114:51
Sunset17:0101:01
Evening civil twilight17:2801:28

Current date and time
Zulu (UTC)  18-Jan-2019 13:41:43
Local (UTC-8)  18-Jan-2019 05:41:43
 
METAR
KNXP 
15nm NE 
181256Z AUTO 31016KT 10SM CLR 11/06 A3018 RMK AO2 PK WND 29028/1224 SLP198 T01060056
KPSP 
19nm S 
181253Z AUTO 28006KT 8SM CLR 11/09 A3008 RMK AO2 SLP188 T01110094
KTNP 
23nm E 
SuperAWOS
181255Z AUTO 27009G17KT 10SM 12/06 A3014
KL35 
24nm W 
181315Z AUTO 26004KT 10SM CLR 01/M02 A3023 RMK AO2
TAF
KNXP 
15nm NE 
1803/1903 18011KT 9999 FEW030 SCT070 BKN100 QNH3014INS TEMPO 1803/1809 8000 -RA BR BECMG 1809/1811 30008KT 9999 SCT060 QNH3015INS AUTOMATED SENSOR METWATCH 1803 TIL 1821 T09/1811Z T16/1822Z
KPSP 
19nm S 
181132Z 1812/1912 33005KT P6SM SCT200
NOTAMs
Click for the latest NOTAMs
NOTAMs are issued by the DoD/FAA and will open in a separate window not controlled by AirNav.

 

 
 

Aviation Businesses, Services, and Facilities

  
 Business Name 
 
 Contact 
 
 Services / Description 
 
Distance
 
Comments
  
 Tortoise and Hare Aviation
760-685-3754
[email]
Flight training, Aircraft rental, Internet access, Restrooms
 
National Association of Flight Instructors  
 
More info about Tortoise and Hare Aviation
on airport  
   write
 

Would you like to see your business listed on this page?

 If your business provides an interesting product or service to pilots, flight crews, aircraft, or users of the Yucca Valley Airport, you should consider listing it here.  To start the listing process, click on the button below
 
Add a business
 

Other Pages about Yucca Valley Airport

www.yuccavalleyairport.com
 
Update a link
 
Copyright © AirNav, LLC. All rights reserved. Privacy Policy  Contact